This demonstration page uses our WeatherBlox Daily Observations layout. Learn more.

Left ArrowRight Arrow

53.62937, 11.41316

Hourly Observations for May 30, 2021

Temp ( °F °C ) Dew Point ( °F °C ) Humidity (%) Winds ( mph kmh ) Pressure ( in mb ) Visibility ( mi km ) Precip ( " mm )
7:50 am 07:50 Mostly Cloudy with Mist and Fog 46 8 46 8 100 100 WSW 6 9 30.36 1028 3 5 N/A
8:20 am 08:20 Mostly Cloudy 46 8 46 8 100 100 WSW 5 7 30.36 1028 4 6 N/A
8:50 am 08:50 Mostly Cloudy 46 8 46 8 100 100 WSW 5 7 30.36 1028 5 8 N/A
9:20 am 09:20 Mostly Cloudy 48 9 45 7 87 87 WSW 3 6 30.36 1028 30 48 N/A
9:50 am 09:50 Mostly Cloudy 48 9 46 8 94 94 VRB 3 6 30.36 1028 30 48 N/A
10:20 am 10:20 Mostly Cloudy 50 10 45 7 82 82 VRB 3 6 30.36 1028 30 48 N/A
10:50 am 10:50 Partly Cloudy 52 11 46 8 82 82 VRB 3 6 30.36 1028 30 48 N/A
11:20 am 11:20 Mostly Sunny 54 12 46 8 77 77 VRB 2 4 30.36 1028 7 11 N/A
11:50 am 11:50 Mostly Sunny 55 13 48 9 77 77 VRB 3 6 30.36 1028 7 11 N/A
12:20 pm 12:20 Mostly Sunny 57 14 48 9 72 72 VRB 3 6 30.36 1028 7 11 N/A
12:50 pm 12:50 Mostly Sunny 57 14 50 10 77 77 VRB 3 6 30.36 1028 7 11 N/A
1:20 pm 13:20 Mostly Sunny 59 15 50 10 72 72 VRB 3 6 30.36 1028 7 11 N/A
1:50 pm 13:50 Mostly Sunny 63 17 54 12 73 73 VRB 3 6 30.36 1028 7 11 N/A
2:20 pm 14:20 Mostly Sunny 61 16 50 10 68 68 VRB 3 6 30.36 1028 7 11 N/A
2:50 pm 14:50 Mostly Sunny 64 18 52 11 64 64 VRB 3 6 30.33 1027 7 11 N/A
3:20 pm 15:20 Mostly Sunny 64 18 54 12 68 68 NNE 6 9 30.33 1027 7 11 N/A
3:50 pm 15:50 Mostly Sunny 63 17 54 12 73 73 ENE 12 19 30.33 1027 30 48 N/A
4:20 pm 16:20 Mostly Sunny 64 18 55 13 73 73 NE 8 13 30.33 1027 30 48 N/A
4:50 pm 16:50 Mostly Sunny 64 18 54 12 68 68 NE 8 13 30.33 1027 7 11 N/A
5:20 pm 17:20 Mostly Sunny 64 18 54 12 68 68 NNE 7 11 30.33 1027 7 11 N/A
5:50 pm 17:50 Mostly Sunny 64 18 54 12 68 68 NNE 8 13 30.30 1026 7 11 N/A
6:20 pm 18:20 Mostly Sunny 64 18 52 11 64 64 N 8 13 30.30 1026 7 11 N/A
6:50 pm 18:50 Mostly Sunny 64 18 52 11 64 64 NE 8 13 30.30 1026 7 11 N/A
7:20 pm 19:20 Mostly Sunny 63 17 50 10 64 64 NNE 8 13 30.30 1026 7 11 N/A
7:50 pm 19:50 Mostly Sunny 61 16 50 10 68 68 NE 9 15 30.30 1026 7 11 N/A
8:20 pm 20:20 Mostly Sunny 61 16 48 9 63 63 NE 7 11 30.30 1026 7 11 N/A
8:50 pm 20:50 Mostly Sunny 59 15 48 9 68 68 ENE 7 11 30.30 1026 7 11 N/A
9:20 pm 21:20 Mostly Sunny 55 13 48 9 77 77 NE 6 9 30.30 1026 7 11 N/A
9:50 pm 21:50 Mostly Clear 55 13 48 9 77 77 ENE 3 6 30.30 1026 7 11 N/A

Powered by AerisWeather